Location: Tamazert
(32.6352°N, 5.2072°W)
Time: 05:50:34
(UTC+00:00)

ISS - Visible Passes

Search period start: 04 March 2024 00:00
Search period end: 14 March 2024 00:00
Orbit: 414 x 422 km, 51.6° (Epoch: 04 March)

Date Brightness Start Highest point End Pass type
(mag) Time Alt. Az. Time Alt. Az. Time Alt. Az.
05 Mar -1.8 05:58:20 10° NNW 06:01:18 28° NE 06:04:15 10° E visible
06 Mar -1.1 05:10:52 10° N 05:13:07 17° NNE 05:15:27 10° ENE visible
07 Mar -0.5 04:25:07 11° NE 04:25:07 11° NE 04:25:59 10° NE visible
07 Mar -3.8 05:58:36 10° NW 06:01:59 86° SW 06:05:21 10° SE visible
08 Mar -2.9 05:12:28 28° NNW 05:13:52 47° NE 05:17:08 10° ESE visible
09 Mar -1.1 04:27:00 20° ENE 04:27:00 20° ENE 04:28:33 10° E visible
09 Mar -2.4 05:59:58 12° W 06:02:18 22° SW 06:05:00 10° S visible
10 Mar -3.2 05:14:41 41° SSW 05:14:41 41° SSW 05:17:28 10° SSE visible
10 Mar -1.0 20:13:48 10° SSW 20:14:05 12° SSW 20:14:05 12° SSW visible
11 Mar -2.6 19:26:08 10° S 19:28:54 25° SE 19:29:05 25° ESE visible
12 Mar -2.5 20:14:04 10° WSW 20:16:54 40° WNW 20:16:54 40° WNW visible
13 Mar -3.8 19:25:38 10° SW 19:28:57 84° NW 19:31:32 16° NE visible
